When you browse on this site, cookies collect data to enhance your experience and personalize the content and advertising you see.
Visit our Privacy Policy to learn more. By continuing to use the site, you agree to this use of cookies and data.
  • In Hungary
  • List of Countries
  • For 7 days
  • Water Temperature
  • Satellite Maps
  • Weather Map
  • News
  • Weather Widgets
  • user-avatar
    Login

    Hourly Weather Mondovi

    Today, 26 June, Wednesday

    Time Temperature Precipitation Wind Pressure Humidity
    00:00 +24°C° 0 mm 1 mps 731 mmHg 84%
    01:00 +23°C° 0 mm 1 mps 731 mmHg 87%
    02:00 +23°C° 0 mm 1 mps 731 mmHg 87%
    03:00 +23°C° 0 mm 1 mps 731 mmHg 87%
    04:00 +23°C° 0 mm 1 mps 731 mmHg 88%
    05:00 +24°C° 0 mm 1 mps 731 mmHg 84%
    06:00 +25°C° 0 mm 1 mps 731 mmHg 81%
    07:00 +27°C° 0 mm 1 mps 732 mmHg 77%
    08:00 +28°C° 0 mm 1 mps 732 mmHg 70%
    09:00 +30°C° 0 mm 1 mps 732 mmHg 63%
    10:00 +31°C° 0 mm 1 mps 732 mmHg 57%
    11:00 +32°C° 0 mm 1 mps 732 mmHg 54%
    12:00 +33°C° 0 mm 1 mps 732 mmHg 51%
    13:00 +35°C° 0 mm 2 mps 732 mmHg 48%
    14:00 +35°C° 0 mm 2 mps 732 mmHg 48%
    15:00 +35°C° 0 mm 1 mps 731 mmHg 49%
    16:00 +35°C° 0 mm 1 mps 731 mmHg 49%
    17:00 +33°C° 0 mm 1 mps 731 mmHg 56%
    18:00 +32°C° 0 mm 1 mps 731 mmHg 64%
    19:00 +31°C° 0 mm 1 mps 731 mmHg 72%
    20:00 +29°C° 0 mm 1 mps 731 mmHg 74%
    21:00 +28°C° 0 mm 1 mps 731 mmHg 77%
    22:00 +26°C° 0 mm 1 mps 732 mmHg 79%
    23:00 +26°C° 0 mm 1 mps 731 mmHg 78%

    Tomorrow, 27 June, Thursday

    Time Temperature Precipitation Wind Pressure Humidity
    00:00 +26°C° 0 mm 1 mps 731 mmHg 77%
    01:00 +25°C° 0 mm 1 mps 731 mmHg 76%
    02:00 +25°C° 0 mm 1 mps 731 mmHg 74%
    03:00 +25°C° 0 mm 1 mps 730 mmHg 72%
    04:00 +25°C° 0 mm 1 mps 730 mmHg 70%
    05:00 +26°C° 0 mm 1 mps 730 mmHg 68%
    06:00 +27°C° 0 mm 1 mps 730 mmHg 66%
    07:00 +28°C° 0 mm 1 mps 730 mmHg 64%
    08:00 +30°C° 0 mm 1 mps 730 mmHg 58%
    09:00 +32°C° 0 mm 1 mps 730 mmHg 52%
    10:00 +35°C° 0 mm 1 mps 731 mmHg 46%
    11:00 +36°C° 0 mm 1 mps 730 mmHg 42%
    12:00 +37°C° 0 mm 1 mps 730 mmHg 38%
    13:00 +39°C° 0 mm 1 mps 730 mmHg 34%
    14:00 +39°C° 0 mm 1 mps 729 mmHg 32%
    15:00 +39°C° 0 mm 1 mps 729 mmHg 30%
    16:00 +40°C° 0 mm 1 mps 729 mmHg 29%
    17:00 +37°C° 0 mm 1 mps 728 mmHg 36%
    18:00 +35°C° 0 mm 1 mps 728 mmHg 43%
    19:00 +31°C° 0 mm 0 mps 727 mmHg 50%
    20:00 +31°C° 0 mm 1 mps 727 mmHg 45%
    21:00 +30°C° 0 mm 1 mps 727 mmHg 40%
    22:00 +28°C° 0 mm 2 mps 727 mmHg 35%
    23:00 +28°C° 0 mm 2 mps 727 mmHg 32%

    Day after tomorrow, 28 June, Friday

    Time Temperature Precipitation Wind Pressure Humidity
    00:00 +28°C° 0 mm 2 mps 727 mmHg 29%
    01:00 +28°C° 0 mm 2 mps 727 mmHg 25%
    02:00 +28°C° 0 mm 2 mps 726 mmHg 26%
    03:00 +27°C° 0 mm 2 mps 726 mmHg 27%
    04:00 +27°C° 0 mm 1 mps 726 mmHg 28%
    05:00 +28°C° 0 mm 1 mps 726 mmHg 34%
    06:00 +28°C° 0 mm 1 mps 726 mmHg 41%
    07:00 +29°C° 0 mm 1 mps 726 mmHg 48%
    08:00 +30°C° 0 mm 1 mps 726 mmHg 46%
    09:00 +31°C° 0 mm 2 mps 726 mmHg 44%
    10:00 +34°C° 0 mm 2 mps 726 mmHg 42%
    11:00 +34°C° 0 mm 2 mps 726 mmHg 42%
    12:00 +35°C° 0 mm 2 mps 726 mmHg 42%
    13:00 +36°C° 0 mm 2 mps 726 mmHg 42%
    14:00 +36°C° 0 mm 2 mps 726 mmHg 43%
    15:00 +36°C° 0 mm 2 mps 725 mmHg 44%
    16:00 +35°C° 0 mm 1 mps 725 mmHg 46%
    17:00 +34°C° 0 mm 1 mps 725 mmHg 54%
    18:00 +33°C° 0 mm 1 mps 725 mmHg 62%
    19:00 +31°C° 0 mm 1 mps 725 mmHg 70%
    20:00 +29°C° 0.2 mm 1 mps 725 mmHg 77%
    21:00 +28°C° 0.2 mm 1 mps 725 mmHg 83%
    22:00 +26°C° 0.2 mm 1 mps 725 mmHg 90%
    23:00 +25°C° 0.9 mm 1 mps 726 mmHg 92%

    29 June, Saturday

    Time Temperature Precipitation Wind Pressure Humidity
    00:00 +25°C° 0.9 mm 1 mps 726 mmHg 94%
    01:00 +24°C° 0.9 mm 2 mps 726 mmHg 95%
    02:00 +24°C° 0.1 mm 2 mps 726 mmHg 95%
    03:00 +24°C° 0.1 mm 2 mps 726 mmHg 95%
    04:00 +24°C° 0.1 mm 2 mps 726 mmHg 95%
    05:00 +24°C° 0 mm 2 mps 726 mmHg 94%
    06:00 +24°C° 0 mm 2 mps 726 mmHg 92%
    07:00 +24°C° 0 mm 2 mps 726 mmHg 90%
    08:00 +25°C° 0 mm 2 mps 726 mmHg 83%
    09:00 +26°C° 0 mm 2 mps 727 mmHg 77%
    10:00 +26°C° 0 mm 2 mps 727 mmHg 70%
    11:00 +27°C° 0 mm 2 mps 727 mmHg 66%
    12:00 +29°C° 0 mm 2 mps 727 mmHg 62%
    13:00 +30°C° 0 mm 2 mps 727 mmHg 59%
    14:00 +30°C° 0 mm 2 mps 727 mmHg 59%
    15:00 +30°C° 0 mm 2 mps 727 mmHg 58%
    16:00 +31°C° 0 mm 2 mps 727 mmHg 58%
    17:00 +30°C° 0 mm 2 mps 727 mmHg 63%
    18:00 +29°C° 0 mm 2 mps 727 mmHg 68%
    19:00 +28°C° 0 mm 2 mps 727 mmHg 73%
    20:00 +26°C° 0 mm 1 mps 727 mmHg 78%
    21:00 +25°C° 0 mm 1 mps 727 mmHg 82%
    22:00 +23°C° 0 mm 1 mps 728 mmHg 87%
    23:00 +23°C° 0 mm 1 mps 728 mmHg 87%

    30 June, Sunday

    Time Temperature Precipitation Wind Pressure Humidity
    00:00 +23°C° 0 mm 1 mps 728 mmHg 88%
    01:00 +22°C° 0 mm 1 mps 728 mmHg 89%
    02:00 +22°C° 0 mm 1 mps 727 mmHg 90%
    03:00 +22°C° 0 mm 1 mps 727 mmHg 90%
    04:00 +22°C° 0 mm 1 mps 727 mmHg 91%
    05:00 +23°C° 0 mm 1 mps 727 mmHg 87%
    06:00 +24°C° 0 mm 1 mps 728 mmHg 84%
    07:00 +25°C° 0 mm 1 mps 728 mmHg 80%
    08:00 +26°C° 0 mm 1 mps 728 mmHg 73%
    09:00 +28°C° 0 mm 1 mps 728 mmHg 67%
    10:00 +29°C° 0 mm 2 mps 729 mmHg 60%
    11:00 +31°C° 0 mm 1 mps 729 mmHg 58%
    12:00 +32°C° 0 mm 1 mps 729 mmHg 55%
    13:00 +33°C° 0 mm 1 mps 729 mmHg 53%
    14:00 +33°C° 0 mm 1 mps 728 mmHg 52%
    15:00 +33°C° 0 mm 1 mps 728 mmHg 50%
    16:00 +33°C° 0 mm 1 mps 728 mmHg 49%
    17:00 +32°C° 0 mm 1 mps 728 mmHg 57%
    18:00 +31°C° 0 mm 1 mps 728 mmHg 64%
    19:00 +27°C° 0 mm 0 mps 727 mmHg 72%
    20:00 +28°C° 0 mm 1 mps 728 mmHg 75%
    21:00 +26°C° 0 mm 1 mps 728 mmHg 79%
    22:00 +25°C° 0 mm 1 mps 728 mmHg 82%
    23:00 +24°C° 0 mm 1 mps 728 mmHg 83%

    1 July, Monday

    Time Temperature Precipitation Wind Pressure Humidity
    00:00 +24°C° 0 mm 1 mps 728 mmHg 83%
    01:00 +24°C° 0 mm 1 mps 728 mmHg 84%
    02:00 +23°C° 0 mm 1 mps 728 mmHg 85%
    03:00 +23°C° 0 mm 1 mps 728 mmHg 85%
    04:00 +23°C° 0 mm 1 mps 727 mmHg 86%
    05:00 +24°C° 0 mm 1 mps 728 mmHg 82%
    06:00 +23°C° 0 mm 0 mps 728 mmHg 78%
    07:00 +24°C° 0 mm 0 mps 728 mmHg 74%
    08:00 +28°C° 0 mm 1 mps 728 mmHg 68%
    09:00 +30°C° 0 mm 1 mps 728 mmHg 63%
    10:00 +31°C° 0 mm 1 mps 728 mmHg 58%
    11:00 +32°C° 0.1 mm 1 mps 728 mmHg 56%
    12:00 +33°C° 0.1 mm 1 mps 728 mmHg 54%
    13:00 +34°C° 0.1 mm 1 mps 728 mmHg 52%
    14:00 +34°C° 0.1 mm 1 mps 727 mmHg 51%
    15:00 +34°C° 0.1 mm 1 mps 727 mmHg 51%
    16:00 +35°C° 0.1 mm 2 mps 727 mmHg 50%
    17:00 +32°C° 0.4 mm 2 mps 726 mmHg 58%
    18:00 +30°C° 0.4 mm 1 mps 726 mmHg 67%
    19:00 +28°C° 0.4 mm 1 mps 726 mmHg 75%
    20:00 +26°C° 0.6 mm 1 mps 726 mmHg 78%
    21:00 +25°C° 0.6 mm 1 mps 726 mmHg 81%
    22:00 +24°C° 0.6 mm 1 mps 727 mmHg 84%
    23:00 +23°C° 2 mm 1 mps 727 mmHg 87%
    Show more